Volver al catálogo

STARLINK-36920

ActivoComunicacionesVLEO
NORAD 67947·PAYLOAD·🇺🇸 United States

Lanzado Feb 24, 2026 desde Vandenberg Space Force Base

Loading…

Próximos Pases (próximas 24 horas)

TLE

ActualizadoSource: CelesTrak SupGP

Época: Sep 15, 2026, 03:39 UTC

1 67947C 26037R   26258.15256944 -.00023350  00000+0 -84597-3 0  2588
2 67947  43.0028 200.3859 0001392 274.1306 339.9268 15.27580813    18

Sigue STARLINK-36920 en tiempo real con AllMySat

Download on the App Store